Weather History for KSPG - September, 2011

Change the Weather History Date:

Saturday, September 24, 2011

  Actual Average Record
Temperature  
Mean Temperature 81 °F -  
Max Temperature 86 °F 87 °F 93 °F (2005)
Min Temperature 78 °F 74 °F 69 °F (1990)
Cooling Degree Days 16    
Growing Degree Days 31 (Base 50)    
Moisture  
Dew Point 77 °F    
Average Humidity 87    
Maximum Humidity 100    
Minimum Humidity 72    
Precipitation  
Precipitation 1.40 in - - ()
Sea Level Pressure  
Sea Level Pressure 29.91 in    
Wind  
Wind Speed 5 mph (SE)    
Max Wind Speed 15 mph    
Max Gust Speed 22 mph    
Visibility 7 miles    
Events Fog , Rain , Thunderstorm    
Averages and records for this station are not official NWS values.
T = Trace of Precipitation, MM = Missing Value Source: NWS Daily Summary

Daily Weather History Graph

Daily Weather History Graph

Search for Another Location

Airport or City:

Trip Planner

Search our weather history database for the weather conditions in past years. The results will help you decide how hot, cold, wet, or windy it might be!

Date:

Astronomy

Sep. 24, 2011 Rise Set
Actual Time 7:19 AM EDT 7:24 PM EDT
Civil Twilight 6:56 AM EDT 7:48 PM EDT
Nautical Twilight 6:29 AM EDT 8:15 PM EDT
Astronomical Twilight 6:01 AM EDT 8:42 PM EDT
Moon 4:09 AM EDT (9/24) 5:19 PM EDT (9/24)
Length of Visible Light 12h 51m
Length of Day
12h 05m
Waning Crescent, 11% of the Moon is Illuminated
Sep 24
Waning Crescent
Sep 27
New
Oct 3
First Quarter
Oct 11
Full
Oct 19
Last Quarter

Hourly Weather History & Observations

Time (EDT) Temp. Heat Index Dew Point Humidity Pressure Visibility Wind Dir Wind Speed Gust Speed Precip Events Conditions
12:53 AM 81.0 °F 88.6 °F 78.1 °F 91% 29.93 in 10.0 mi North 3.5 mph - N/A   Clear
1:53 AM 80.1 °F 85.8 °F 77.0 °F 90% 29.91 in 10.0 mi SSE 10.4 mph - N/A   Clear
2:53 AM 80.1 °F 85.4 °F 75.9 °F 87% 29.89 in 10.0 mi South 5.8 mph - N/A   Clear
3:53 AM 80.1 °F 85.8 °F 77.0 °F 90% 29.88 in 10.0 mi West 3.5 mph - N/A   Clear
4:53 AM 80.1 °F 86.4 °F 78.1 °F 94% 29.88 in 10.0 mi Calm Calm - N/A   Clear
5:53 AM 80.1 °F 86.4 °F 78.1 °F 94% 29.89 in 10.0 mi Calm Calm - N/A   Clear
6:53 AM 80.1 °F 86.4 °F 78.1 °F 94% 29.90 in 10.0 mi Calm Calm - N/A   Clear
7:53 AM 80.1 °F 86.4 °F 78.1 °F 94% 29.91 in 10.0 mi Calm Calm - N/A   Clear
8:02 AM 80.6 °F 88.1 °F 78.8 °F 94% 29.90 in 10.0 mi Calm Calm - N/A   Partly Cloudy
8:53 AM 82.0 °F 91.0 °F 78.1 °F 88% 29.92 in 10.0 mi Calm Calm - N/A   Partly Cloudy
9:53 AM 82.9 °F 92.8 °F 78.1 °F 85% 29.93 in 10.0 mi SSE 4.6 mph - N/A   Mostly Cloudy
10:51 AM 84.2 °F 96.1 °F 78.8 °F 84% 29.95 in 10.0 mi SE 5.8 mph - N/A   Overcast
10:53 AM 84.0 °F 94.8 °F 78.1 °F 82% 29.95 in 10.0 mi SE 5.8 mph - N/A   Overcast
11:36 AM 82.4 °F 92.4 °F 78.8 °F 89% 29.94 in 10.0 mi SE 6.9 mph - 0.00 in   Overcast
11:53 AM 82.0 °F 91.0 °F 78.1 °F 88% 29.95 in 10.0 mi SE 5.8 mph - 0.00 in   Mostly Cloudy
12:53 PM 84.9 °F 95.3 °F 77.0 °F 77% 29.94 in 10.0 mi SE 4.6 mph - 0.00 in   Mostly Cloudy
1:10 PM 82.4 °F 92.4 °F 78.8 °F 89% 29.93 in 1.8 mi SSW 5.8 mph - 0.13 in Rain Heavy Rain
1:15 PM 80.6 °F 87.1 °F 77.0 °F 89% 29.93 in 1.0 mi SSE 3.5 mph - 0.22 in Rain Heavy Rain
1:24 PM 82.4 °F 92.4 °F 78.8 °F 89% 29.93 in 4.0 mi East 5.8 mph - 0.23 in Rain Light Rain
1:30 PM 80.6 °F 88.1 °F 78.8 °F 94% 29.92 in 2.5 mi SE 6.9 mph - 0.32 in Rain Heavy Rain
1:41 PM 82.4 °F 92.4 °F 78.8 °F 89% 29.92 in 3.0 mi SE 8.1 mph - 0.39 in Rain Heavy Rain
1:46 PM 82.4 °F 92.4 °F 78.8 °F 89% 29.92 in 3.0 mi East 8.1 mph - 0.41 in Rain Heavy Rain
1:53 PM 81.0 °F 88.6 °F 78.1 °F 91% 29.91 in 2.5 mi NE 6.9 mph - 0.45 in Rain Heavy Rain
2:11 PM 82.4 °F 89.5 °F 75.2 °F 79% 29.90 in 8.0 mi ESE 3.5 mph - 0.04 in Rain Light Rain
2:28 PM 82.4 °F 90.9 °F 77.0 °F 84% 29.90 in 10.0 mi East 5.8 mph - 0.04 in   Mostly Cloudy
2:35 PM 82.4 °F 92.4 °F 78.8 °F 89% 29.90 in 7.0 mi ESE 4.6 mph - 0.07 in Rain Light Rain
2:42 PM 82.4 °F 92.4 °F 78.8 °F 89% 29.91 in 1.8 mi South 15.0 mph 21.9 mph 0.16 in Rain Heavy Rain
2:46 PM 80.6 °F 88.1 °F 78.8 °F 94% 29.91 in 0.8 mi West 8.1 mph 21.9 mph 0.28 in Rain Heavy Rain
2:49 PM 78.8 °F - 78.8 °F 100% 29.91 in 0.5 mi WSW 9.2 mph 21.9 mph 0.38 in Fog , Rain Heavy Rain
2:53 PM 79.0 °F - 77.0 °F 94% 29.91 in 0.2 mi SSW 10.4 mph 19.6 mph 0.52 in Fog , Rain Heavy Rain
3:06 PM 80.6 °F 85.4 °F 73.4 °F 79% 29.90 in 3.0 mi Variable 3.5 mph - 0.31 in Rain Rain
3:11 PM 80.6 °F 86.2 °F 75.2 °F 84% 29.90 in 3.0 mi Calm Calm - 0.32 in Rain , Thunderstorm Rain
3:37 PM 78.8 °F - 75.2 °F 89% 29.89 in 3.0 mi NNE 10.4 mph 19.6 mph 0.43 in Rain Rain
3:50 PM 80.6 °F 86.2 °F 75.2 °F 84% 29.89 in 10.0 mi NNE 6.9 mph - 0.43 in Rain Light Rain
3:53 PM 81.0 °F 87.3 °F 75.9 °F 85% 29.88 in 10.0 mi North 6.9 mph - 0.43 in Rain Light Rain
4:53 PM 84.9 °F 94.1 °F 75.9 °F 74% 29.87 in 10.0 mi Calm Calm - 0.00 in   Clear
6:53 PM 84.9 °F 93.3 °F 75.0 °F 72% 29.87 in 10.0 mi NNW 3.5 mph - N/A   Clear
7:53 PM 84.0 °F 92.6 °F 75.9 °F 76% 29.88 in 10.0 mi NNW 3.5 mph - N/A   Clear
8:53 PM 82.9 °F 91.8 °F 77.0 °F 82% 29.90 in 10.0 mi Calm Calm - N/A   Clear
10:53 PM 82.0 °F 90.2 °F 77.0 °F 85% 29.93 in 10.0 mi Calm Calm - N/A   Clear